Simultaneous Nadir Overpasses (SNOs) Predictions

Prediction of SNOs between GOES-16 and TERRA Satellite Orbit:

Table of predicted SNOs for the next 14.0 days since TLE Epoch: 10/22/2022
Index Date Time (GOES-16) GOES-16 Lat,Lon TERRA Lat,Lon Distance(km) Time Diff (sec)
1 10/24/2022 03:18:37 0.06, -75.20 -0.06, -75.78 66.07 80
2 10/26/2022 03:00:19 0.06, -75.22 0.72, -72.00 365.18 80
3 10/26/2022 15:23:20 -0.06, -75.24 0.30, -76.95 194.51 80
4 10/28/2022 15:07:43 -0.06, -75.25 -0.49, -73.17 236.90 80
5 10/29/2022 03:28:13 0.06, -75.24 -0.59, -78.15 331.19 80
6 10/31/2022 03:09:55 0.05, -75.26 0.22, -74.37 100.55 80
7 10/31/2022 15:30:17 -0.05, -75.28 0.80, -79.32 459.07 80
8 11/02/2022 15:17:18 -0.04, -75.30 0.03, -75.53 26.55 80
9 11/04/2022 14:59:00 -0.04, -75.34 -0.80, -71.75 407.30 80
